Location: Unspecified
(0.0000°N, 0.0000°E)
Time: 21:40:35
(UTC+00:00)

Altair - All Passes

Search period start: 27 October 2021 00:00
Search period end: 06 November 2021 00:00
Orbit: 1502 x 1682 km, 47.2° (Epoch: 27 October)

Date Brightness Start Highest point End Pass type
(mag) Time Alt. Az. Time Alt. Az. Time Alt. Az.
27 Oct - 01:24:08 10° WNW 01:26:23 11° NW 01:28:39 10° NNW night (unlit)
27 Oct - 09:56:35 10° NNW 10:06:19 54° NE 10:16:08 10° SE daylight
27 Oct - 12:02:11 10° WNW 12:11:02 35° SW 12:19:56 10° SSE daylight
27 Oct - 20:45:04 10° S 20:51:30 21° SE 20:57:50 10° E visible
27 Oct - 22:46:57 10° SW 22:56:10 77° NW 23:05:20 10° NE visible
28 Oct - 00:57:16 10° WNW 01:01:06 13° NW 01:04:58 10° NNW night (unlit)
28 Oct - 09:31:34 10° NNW 09:41:06 48° NE 09:50:44 10° ESE daylight
28 Oct - 11:36:39 10° WNW 11:45:48 39° SW 11:55:00 10° SSE daylight
28 Oct - 20:20:27 10° S 20:26:15 18° SE 20:31:59 10° E visible
28 Oct - 22:21:45 10° SW 22:31:02 86° NW 22:40:13 10° NE visible
29 Oct - 00:30:59 10° WNW 00:35:50 15° NW 00:40:44 10° NNW night (unlit)
29 Oct - 09:06:35 10° NNW 09:15:53 43° NE 09:25:17 10° ESE daylight
29 Oct - 11:11:11 10° WNW 11:20:34 44° SW 11:30:02 10° SSE daylight
29 Oct - 19:55:57 10° SSE 20:01:00 15° SE 20:05:58 10° E visible
29 Oct - 21:56:35 10° SW 22:05:53 86° SE 22:15:04 10° NE visible
30 Oct - 00:04:57 10° W 00:10:35 18° NW 00:16:17 10° N night (unlit)
30 Oct - 08:41:38 10° NNW 08:50:39 38° NE 08:59:48 10° ESE daylight
30 Oct - 10:45:46 10° WNW 10:55:20 49° SW 11:05:02 10° SSE daylight
30 Oct - 19:31:40 10° SSE 19:35:43 13° SE 19:39:43 10° ESE visible
30 Oct - 21:31:27 10° SW 21:40:45 77° SE 21:49:53 10° NE visible
30 Oct - 23:39:03 10° W 23:45:22 20° NW 23:51:41 10° N night (unlit)
31 Oct - 08:16:43 10° NNW 08:25:26 34° NE 08:34:15 10° ESE daylight
31 Oct - 10:20:24 10° NW 10:30:08 54° SW 10:39:58 10° SSE daylight
31 Oct - 19:07:50 10° SSE 19:10:26 11° SE 19:13:00 10° ESE visible
31 Oct - 21:06:20 10° SSW 21:15:36 69° SE 21:24:41 10° NE visible
31 Oct - 23:13:18 10° W 23:20:09 23° NW 23:27:01 10° N night (unlit)
01 Nov - 07:51:52 10° N 08:00:12 30° NE 08:08:39 10° ESE daylight
01 Nov - 09:55:04 10° NW 10:04:55 61° SW 10:14:54 10° SSE daylight
01 Nov - 12:09:01 10° SW 12:10:28 10° SW 12:11:55 10° SW daylight
01 Nov - 20:41:16 10° SSW 20:50:28 61° SE 20:59:26 10° NE visible
01 Nov - 22:47:38 10° WSW 22:54:57 27° NW 23:02:16 10° N visible
02 Nov - 07:27:03 10° N 07:34:57 27° NE 07:42:57 10° ESE daylight
02 Nov - 09:29:46 10° NW 09:39:42 68° SW 09:49:48 10° SSE daylight
02 Nov - 11:41:25 10° WSW 11:45:06 12° SW 11:48:49 10° SSW daylight
02 Nov - 20:16:13 10° SSW 20:25:18 55° SE 20:34:09 10° NE visible
02 Nov - 22:22:01 10° WSW 22:29:46 30° NW 22:37:27 10° N visible
03 Nov - 07:02:18 10° N 07:09:42 24° NE 07:17:12 10° E daylight
03 Nov - 09:04:31 10° NW 09:14:29 75° SW 09:24:40 10° SE daylight
03 Nov - 11:14:50 10° WSW 11:19:46 14° SW 11:24:43 10° SSW daylight
03 Nov - 19:51:11 10° SSW 20:00:08 48° SE 20:08:50 10° ENE visible
03 Nov - 21:56:30 10° WSW 22:04:35 34° NW 22:12:37 10° NNE visible
04 Nov - 06:37:37 10° N 06:44:26 21° NE 06:51:20 10° E daylight
04 Nov - 08:39:18 10° NW 08:49:17 83° SW 08:59:30 10° SE daylight
04 Nov - 10:48:36 10° W 10:54:27 17° SW 11:00:21 10° S daylight
04 Nov - 19:26:11 10° SSW 19:34:58 43° SE 19:43:29 10° ENE visible
04 Nov - 21:31:01 10° WSW 21:39:25 39° NW 21:47:43 10° NNE visible
05 Nov - 06:13:03 10° N 06:19:10 18° NE 06:25:21 10° E daylight
05 Nov - 08:14:07 10° NW 08:24:05 89° NE 08:34:18 10° SE daylight
05 Nov - 10:22:34 10° W 10:29:08 19° SW 10:35:47 10° S daylight
05 Nov - 19:01:13 10° SSW 19:09:47 38° SE 19:18:05 10° ENE visible
05 Nov - 21:05:35 10° WSW 21:14:15 44° NW 21:22:48 10° NNE visible
